STARLINK-1616 (46148 NORAD) Tracking and Keplerian Element Data

This shows tracking and keplerian element data for the satellite.

Feedback or suggestion? Click here.




ElementValue
Catalog46148
NameSTARLINK-1616
Epoch Orbit180
Epoch Day336.91667824
Epoch Year2020
RAAN292.7666
Inclination52.9985
Eccentricity0.0001972
Argument of Perigee68.8508
Mean Anonmoly99.9922
Mean Motion15.05597847
Decay Rate4.222E-05
L11 46148U 20057AH 20336.91667824 .00004222 00000-0 30863-3 0 9997
L22 46148 52.9985 292.7666 0001972 68.8508 99.9922 15.05597847 1805

Live tracking and technical data element details for STARLINK-1616 (NORAD 46148). STARLINK-1616 can be tracked NOW for your location showing map with azimuth and elevation plus other details from your city location.

Track the satellite on the map from your city or location and see movement details for azimuth, elevation, latitude, longitude, range, height, and movement on the map or in text.







IsCatalogInMostPopularTable: catalog: 46148, numindb: 19
Update: records affected: 1



GetName: 46148 STARLINK-1616

Hit Count: updated at: Wed, 02 Dec 2020 19:12:56 GMT